| time (UTC) | temp F | wind direction | speed MPH | gust MPH | rain 1hr in | rain 24hr in | rain mn in | humidity % | barometer mb |
| 20260906112152 | 71 | 65 | 0.0 | 0.0 | 0.00 | 0.00 | 0.00 | 99 | 1010.6 |
| 20260906111651 | 71 | 65 | 0.0 | 0.0 | 0.00 | 0.00 | 0.00 | 99 | 1010.6 |
| 20260906111146 | 71 | 65 | 0.0 | 0.0 | 0.00 | 0.00 | 0.00 | 99 | 1010.3 |
| 20260906110641 | 71 | 65 | 0.0 | 0.0 | 0.00 | 0.00 | 0.00 | 99 | 1010.3 |
| 20260906110136 | 71 | 65 | 0.0 | 0.0 | 0.00 | 0.00 | 0.00 | 99 | 1010.3 |
| 20260906105630 | 71 | 8 | 0.0 | 0.0 | 0.00 | 0.00 | 0.00 | 99 | 1010.3 |
| 20260906105127 | 71 | 8 | 0.0 | 0.0 | 0.00 | 0.00 | 0.00 | 99 | 1010.3 |
| 20260906104625 | 71 | 7 | 0.0 | 0.0 | 0.00 | 0.00 | 0.00 | 99 | 1010.3 |
| 20260906104119 | 71 | 7 | 0.0 | 0.0 | 0.00 | 0.00 | 0.00 | 99 | 1010.3 |
| 20260906103618 | 71 | 8 | 0.0 | 0.0 | 0.00 | 0.00 | 0.00 | 99 | 1010.3 |
| 20260906103113 | 71 | 7 | 0.0 | 0.0 | 0.00 | 0.00 | 0.00 | 99 | 1010.3 |
| 20260906102608 | 71 | 8 | 0.0 | 0.0 | 0.00 | 0.00 | 0.00 | 99 | 1009.6 |
| 20260906102102 | 71 | 192 | 0.0 | 0.0 | 0.00 | 0.00 | 0.00 | 99 | 1009.6 |
| 20260906101557 | 71 | 192 | 0.0 | 0.0 | 0.00 | 0.00 | 0.00 | 99 | 1009.9 |
| 20260906101051 | 71 | 192 | 0.0 | 0.0 | 0.00 | 0.00 | 0.00 | 99 | 1009.9 |
| 20260906100547 | 71 | 192 | 0.0 | 0.0 | 0.00 | 0.00 | 0.00 | 99 | 1009.9 |
| 20260906100048 | 71 | 192 | 0.0 | 0.0 | 0.00 | 0.00 | 0.00 | 99 | 1009.6 |
| 20260906095547 | 72 | 192 | 0.0 | 0.0 | 0.00 | 0.00 | 0.00 | 99 | 1009.6 |
| 20260906095043 | 72 | 192 | 0.0 | 0.0 | 0.00 | 0.00 | 0.00 | 99 | 1009.6 |
| 20260906094542 | 72 | 192 | 0.0 | 0.0 | 0.00 | 0.00 | 0.00 | 99 | 1009.6 |
| 20260906094038 | 72 | 192 | 0.0 | 0.0 | 0.00 | 0.00 | 0.00 | 99 | 1009.6 |
| 20260906093533 | 72 | 192 | 0.0 | 0.0 | 0.00 | 0.00 | 0.00 | 99 | 1009.6 |
| 20260906093028 | 72 | 192 | 0.0 | 0.0 | 0.00 | 0.00 | 0.00 | 99 | 1009.6 |
| 20260906092523 | 72 | 192 | 0.0 | 0.0 | 0.00 | 0.00 | 0.00 | 99 | 1009.6 |
| 20260906092018 | 72 | 192 | 0.0 | 0.0 | 0.00 | 0.00 | 0.00 | 99 | 1009.6 |
| 20260906091514 | 72 | 168 | 0.0 | 0.0 | 0.00 | 0.00 | 0.00 | 99 | 1009.3 |
| 20260906091011 | 72 | 148 | 0.0 | 0.0 | 0.00 | 0.00 | 0.00 | 99 | 1009.3 |
| 20260906090510 | 73 | 308 | 0.0 | 0.0 | 0.00 | 0.00 | 0.00 | 99 | 1009.3 |
| 20260906090005 | 73 | 308 | 0.0 | 0.0 | 0.00 | 0.00 | 0.00 | 99 | 1009.6 |
| 20260906085504 | 73 | 317 | 0.0 | 0.0 | 0.00 | 0.00 | 0.00 | 99 | 1009.6 |
| 20260906085004 | 73 | 335 | 1.0 | 1.0 | 0.00 | 0.00 | 0.00 | 99 | 1009.6 |
| 20260906084458 | 73 | 16 | 0.0 | 0.0 | 0.00 | 0.00 | 0.00 | 99 | 1009.3 |
| 20260906083957 | 73 | 320 | 0.0 | 0.0 | 0.00 | 0.00 | 0.00 | 99 | 1009.3 |
| 20260906083453 | 73 | 348 | 0.0 | 0.0 | 0.00 | 0.00 | 0.00 | 99 | 1009.3 |
| 20260906082952 | 73 | 354 | 0.0 | 0.0 | 0.00 | 0.00 | 0.00 | 99 | 1009.6 |
| 20260906082448 | 73 | 354 | 0.0 | 0.0 | 0.00 | 0.00 | 0.00 | 99 | 1009.6 |
| 20260906081944 | 73 | 24 | 0.0 | 0.0 | 0.00 | 0.00 | 0.00 | 99 | 1009.6 |
| 20260906081444 | 73 | 24 | 0.0 | 0.0 | 0.00 | 0.00 | 0.00 | 99 | 1009.6 |
| 20260906080940 | 73 | 54 | 0.0 | 0.0 | 0.00 | 0.00 | 0.00 | 99 | 1009.6 |
| 20260906080436 | 73 | 36 | 0.0 | 0.0 | 0.00 | 0.00 | 0.00 | 99 | 1009.6 |
| 20260906075931 | 73 | 319 | 0.0 | 0.0 | 0.00 | 0.00 | 0.00 | 99 | 1009.6 |
| 20260906075426 | 73 | 66 | 0.0 | 0.0 | 0.00 | 0.00 | 0.00 | 99 | 1009.6 |
| 20260906074920 | 73 | 66 | 0.0 | 0.0 | 0.00 | 0.00 | 0.00 | 99 | 1009.6 |
| 20260906074415 | 73 | 66 | 0.0 | 0.0 | 0.00 | 0.00 | 0.00 | 99 | 1009.6 |
| 20260906073914 | 73 | 66 | 0.0 | 0.0 | 0.00 | 0.00 | 0.00 | 99 | 1009.6 |
| 20260906073409 | 73 | 66 | 0.0 | 0.0 | 0.00 | 0.00 | 0.00 | 99 | 1009.6 |
| 20260906072905 | 74 | 66 | 0.0 | 0.0 | 0.00 | 0.00 | 0.00 | 99 | 1010.3 |
| 20260906072400 | 74 | 114 | 0.0 | 0.0 | 0.00 | 0.00 | 0.00 | 99 | 1010.3 |
| 20260906071856 | 74 | 114 | 0.0 | 0.0 | 0.00 | 0.00 | 0.00 | 98 | 1010.3 |
| 20260906071352 | 74 | 108 | 0.0 | 0.0 | 0.00 | 0.00 | 0.00 | 98 | 1010.3 |
| 20260906070847 | 74 | 108 | 0.0 | 0.0 | 0.00 | 0.00 | 0.00 | 98 | 1010.3 |
| 20260906070343 | 74 | 168 | 0.0 | 0.0 | 0.00 | 0.00 | 0.00 | 98 | 1010.3 |
| 20260906065838 | 74 | 168 | 0.0 | 0.0 | 0.00 | 0.00 | 0.00 | 98 | 1010.6 |
| 20260906065333 | 74 | 168 | 0.0 | 0.0 | 0.00 | 0.00 | 0.00 | 98 | 1010.6 |
| 20260906064828 | 74 | 156 | 0.0 | 0.0 | 0.00 | 0.00 | 0.00 | 98 | 1010.6 |
| 20260906064324 | 74 | 48 | 0.0 | 0.0 | 0.00 | 0.00 | 0.00 | 97 | 1010.3 |
| 20260906063819 | 74 | 48 | 0.0 | 0.0 | 0.00 | 0.00 | 0.00 | 97 | 1010.3 |
| 20260906063314 | 75 | 48 | 0.0 | 0.0 | 0.00 | 0.00 | 0.00 | 97 | 1010.3 |
| 20260906062809 | 75 | 48 | 0.0 | 0.0 | 0.00 | 0.00 | 0.00 | 97 | 1010.3 |
| 20260906062308 | 75 | 48 | 0.0 | 0.0 | 0.00 | 0.00 | 0.00 | 97 | 1010.3 |
| 20260906061804 | 75 | 48 | 0.0 | 0.0 | 0.00 | 0.00 | 0.00 | 96 | 1010.3 |
| 20260906061301 | 75 | 19 | 0.0 | 0.0 | 0.00 | 0.00 | 0.00 | 96 | 1010.3 |
| 20260906060755 | 75 | 27 | 0.0 | 0.0 | 0.00 | 0.00 | 0.00 | 96 | 1010.3 |
| 20260906060253 | 75 | 30 | 0.0 | 0.0 | 0.00 | 0.00 | 0.00 | 96 | 1010.3 |
| 20260906055748 | 75 | 35 | 0.0 | 0.0 | 0.00 | 0.00 | 0.00 | 95 | 1010.3 |
| 20260906055243 | 76 | 136 | 0.0 | 0.0 | 0.00 | 0.00 | 0.00 | 95 | 1010.3 |
| 20260906054739 | 76 | 53 | 0.0 | 0.0 | 0.00 | 0.00 | 0.00 | 95 | 1010.3 |
| 20260906054234 | 76 | 53 | 0.0 | 0.0 | 0.00 | 0.00 | 0.00 | 95 | 1010.3 |
| 20260906053730 | 76 | 53 | 0.0 | 0.0 | 0.00 | 0.00 | 0.00 | 94 | 1010.3 |
| 20260906053226 | 76 | 65 | 0.0 | 0.0 | 0.00 | 0.00 | 0.00 | 94 | 1010.3 |
| 20260906052721 | 76 | 195 | 0.0 | 0.0 | 0.00 | 0.00 | 0.00 | 94 | 1010.3 |
| 20260906052217 | 76 | 20 | 0.0 | 0.0 | 0.00 | 0.00 | 0.00 | 94 | 1010.3 |
| 20260906051714 | 76 | 210 | 0.0 | 0.0 | 0.00 | 0.00 | 0.00 | 94 | 1010.3 |
| 20260906051213 | 76 | 210 | 0.0 | 0.0 | 0.00 | 0.00 | 0.00 | 94 | 1010.3 |
| 20260906050709 | 77 | 24 | 0.0 | 0.0 | 0.00 | 0.00 | 0.00 | 93 | 1010.3 |
| 20260906050204 | 77 | 30 | 0.0 | 0.0 | 0.00 | 0.00 | 0.00 | 93 | 1010.3 |
| 20260906045702 | 77 | 324 | 0.0 | 0.0 | 0.00 | 0.00 | 0.00 | 93 | 1010.3 |
| 20260906045157 | 77 | 26 | 0.0 | 0.0 | 0.00 | 0.00 | 0.00 | 93 | 1010.3 |
| 20260906044653 | 77 | 29 | 0.0 | 0.0 | 0.00 | 0.00 | 0.00 | 93 | 1010.3 |
| 20260906044148 | 77 | 158 | 0.0 | 0.0 | 0.00 | 0.00 | 0.00 | 93 | 1010.6 |
| 20260906043644 | 77 | 180 | 0.0 | 0.0 | 0.00 | 0.00 | 0.00 | 92 | 1010.6 |
| 20260906043140 | 77 | 170 | 0.0 | 0.0 | 0.00 | 0.00 | 0.00 | 92 | 1010.6 |
| 20260906042639 | 78 | 159 | 0.0 | 0.0 | 0.00 | 0.00 | 0.00 | 91 | 1010.6 |
| 20260906042133 | 78 | 120 | 0.0 | 0.0 | 0.00 | 0.00 | 0.00 | 91 | 1010.6 |
| 20260906041629 | 78 | 30 | 0.0 | 0.0 | 0.00 | 0.00 | 0.00 | 91 | 1010.6 |
| 20260906041124 | 78 | 74 | 0.0 | 0.0 | 0.00 | 0.00 | 0.00 | 91 | 1010.9 |
| 20260906040620 | 78 | 220 | 0.0 | 0.0 | 0.00 | 0.00 | 0.00 | 91 | 1010.9 |
| 20260906040115 | 78 | 324 | 0.0 | 0.0 | 0.00 | 0.00 | 0.00 | 91 | 1011.3 |
| 20260906035610 | 78 | 324 | 0.0 | 0.0 | 0.00 | 0.00 | 0.00 | 91 | 1011.3 |
| 20260906035106 | 78 | 180 | 0.0 | 0.0 | 0.00 | 0.00 | 0.00 | 91 | 1011.3 |
| 20260906034606 | 79 | 180 | 0.0 | 0.0 | 0.00 | 0.00 | 0.00 | 90 | 1011.3 |
| 20260906034100 | 79 | 154 | 0.0 | 0.0 | 0.00 | 0.00 | 0.00 | 89 | 1010.9 |
| 20260906033556 | 80 | 48 | 0.0 | 0.0 | 0.00 | 0.00 | 0.00 | 89 | 1010.9 |
| 20260906033051 | 80 | 48 | 0.0 | 0.0 | 0.00 | 0.00 | 0.00 | 88 | 1011.3 |
| 20260906032548 | 80 | 14 | 0.0 | 0.0 | 0.00 | 0.00 | 0.00 | 88 | 1011.3 |
| 20260906032042 | 80 | 160 | 0.0 | 0.0 | 0.00 | 0.00 | 0.00 | 88 | 1011.3 |
| 20260906031538 | 81 | 330 | 0.0 | 0.0 | 0.00 | 0.00 | 0.00 | 88 | 1010.9 |
| 20260906031033 | 81 | 66 | 0.0 | 0.0 | 0.00 | 0.00 | 0.00 | 88 | 1010.9 |
| 20260906030532 | 81 | 240 | 2.0 | 2.0 | 0.00 | 0.00 | 0.00 | 89 | 1010.9 |
| 20260906030032 | 81 | 358 | 3.0 | 3.0 | 0.00 | 0.00 | 0.00 | 90 | 1010.9 |
| 20260906025531 | 82 | 238 | 0.0 | 0.0 | 0.00 | 0.00 | 0.00 | 92 | 1010.9 |
| 20260906025024 | 82 | 334 | 0.0 | 0.0 | 0.00 | 0.00 | 0.00 | 94 | 1010.9 |
| 20260906024520 | 82 | 354 | 2.0 | 2.0 | 0.00 | 0.00 | 0.00 | 94 | 1010.6 |
| 20260906024020 | 82 | 216 | 0.0 | 0.0 | 0.00 | 0.00 | 0.00 | 94 | 1010.6 |
| 20260906023516 | 82 | 6 | 0.0 | 0.0 | 0.00 | 0.00 | 0.00 | 94 | 1010.6 |
| 20260906023011 | 82 | 348 | 0.0 | 0.0 | 0.00 | 0.00 | 0.00 | 95 | 1009.6 |
| 20260906022506 | 82 | 132 | 0.0 | 0.0 | 0.00 | 0.00 | 0.00 | 94 | 1009.6 |
| 20260906022001 | 82 | 200 | 0.0 | 0.0 | 0.00 | 0.00 | 0.00 | 94 | 1009.6 |
| 20260906021456 | 82 | 198 | 0.0 | 0.0 | 0.00 | 0.00 | 0.00 | 94 | 1009.6 |
| 20260906020951 | 82 | 96 | 0.0 | 0.0 | 0.00 | 0.00 | 0.00 | 94 | 1009.6 |
| 20260906020444 | 82 | 2 | 0.0 | 0.0 | 0.00 | 0.00 | 0.00 | 94 | 1009.6 |
| 20260906015938 | 82 | 348 | 0.0 | 0.0 | 0.00 | 0.00 | 0.00 | 93 | 1009.3 |
| 20260906015433 | 83 | 96 | 0.0 | 0.0 | 0.00 | 0.00 | 0.00 | 93 | 1009.3 |
| 20260906014933 | 83 | 96 | 0.0 | 0.0 | 0.00 | 0.00 | 0.00 | 93 | 1009.3 |
| 20260906014432 | 83 | 41 | 0.0 | 0.0 | 0.00 | 0.00 | 0.00 | 93 | 1009.6 |
| 20260906013929 | 83 | 18 | 0.0 | 0.0 | 0.00 | 0.00 | 0.00 | 92 | 1009.6 |
| 20260906013424 | 83 | 228 | 0.0 | 0.0 | 0.00 | 0.00 | 0.00 | 92 | 1009.6 |
| 20260906012920 | 83 | 90 | 0.0 | 0.0 | 0.00 | 0.00 | 0.00 | 92 | 1009.6 |
| 20260906012420 | 83 | 149 | 0.0 | 0.0 | 0.00 | 0.00 | 0.00 | 92 | 1009.6 |
| 20260906011919 | 83 | 359 | 0.0 | 0.0 | 0.00 | 0.00 | 0.00 | 91 | 1009.6 |
| 20260906011414 | 83 | 288 | 0.0 | 0.0 | 0.00 | 0.00 | 0.00 | 91 | 1009.9 |
| 20260906010909 | 83 | 162 | 2.0 | 2.0 | 0.00 | 0.00 | 0.00 | 91 | 1009.9 |
| 20260906010405 | 83 | 130 | 0.0 | 0.0 | 0.00 | 0.00 | 0.00 | 90 | 1009.9 |
| 20260906005901 | 84 | 227 | 2.0 | 2.0 | 0.00 | 0.00 | 0.00 | 90 | 1010.3 |
| 20260906005400 | 84 | 202 | 0.0 | 0.0 | 0.00 | 0.00 | 0.00 | 89 | 1010.3 |
| 20260906004859 | 84 | 174 | 0.0 | 0.0 | 0.00 | 0.00 | 0.00 | 89 | 1010.3 |
| 20260906004353 | 84 | 14 | 1.0 | 1.0 | 0.00 | 0.00 | 0.00 | 89 | 1009.9 |
| 20260906003849 | 84 | 6 | 0.0 | 0.0 | 0.00 | 0.00 | 0.00 | 89 | 1009.9 |
| 20260906003344 | 84 | 263 | 2.0 | 2.0 | 0.00 | 0.00 | 0.00 | 89 | 1009.9 |
| 20260906002840 | 84 | 114 | 2.0 | 2.0 | 0.00 | 0.00 | 0.00 | 88 | 1009.9 |
| 20260906002339 | 84 | 117 | 0.0 | 0.0 | 0.00 | 0.00 | 0.00 | 88 | 1009.9 |
| 20260906001834 | 84 | 210 | 2.0 | 2.0 | 0.00 | 0.00 | 0.00 | 88 | 1009.9 |
| 20260906001330 | 85 | 137 | 0.0 | 0.0 | 0.00 | 0.00 | 0.00 | 87 | 1010.3 |
| 20260906000825 | 85 | 170 | 2.0 | 2.0 | 0.00 | 0.00 | 0.00 | 87 | 1010.3 |
| 20260906000320 | 85 | 111 | 0.0 | 0.0 | 0.00 | 0.00 | 0.00 | 87 | 1010.3 |
| 20260905235820 | 85 | 246 | 1.0 | 1.0 | 0.00 | 0.00 | 0.00 | 86 | 1010.3 |
| 20260905235314 | 85 | 134 | 2.0 | 2.0 | 0.00 | 0.00 | 0.00 | 86 | 1010.3 |
| 20260905234810 | 85 | 128 | 0.0 | 0.0 | 0.00 | 0.00 | 0.00 | 86 | 1010.3 |
| 20260905234305 | 85 | 96 | 0.0 | 0.0 | 0.00 | 0.00 | 0.00 | 85 | 1010.3 |
| 20260905233759 | 86 | 150 | 0.0 | 0.0 | 0.00 | 0.00 | 0.00 | 85 | 1010.3 |
| 20260905233254 | 86 | 134 | 2.0 | 2.0 | 0.00 | 0.00 | 0.00 | 84 | 1010.3 |
| 20260905232753 | 86 | 156 | 0.0 | 0.0 | 0.00 | 0.00 | 0.00 | 84 | 1010.3 |
| 20260905232249 | 86 | 354 | 0.0 | 0.0 | 0.00 | 0.00 | 0.00 | 83 | 1010.3 |
| 20260905231745 | 86 | 145 | 1.0 | 1.0 | 0.00 | 0.00 | 0.00 | 83 | 1010.3 |
| 20260905231240 | 87 | 243 | 0.0 | 0.0 | 0.00 | 0.00 | 0.00 | 83 | 1009.9 |
| 20260905230736 | 87 | 166 | 1.0 | 1.0 | 0.00 | 0.00 | 0.00 | 82 | 1009.9 |
| 20260905230233 | 87 | 114 | 2.0 | 2.0 | 0.00 | 0.00 | 0.00 | 82 | 1009.9 |
| 20260905225728 | 87 | 149 | 0.0 | 0.0 | 0.00 | 0.00 | 0.00 | 82 | 1009.9 |
| 20260905225223 | 87 | 172 | 4.0 | 4.0 | 0.00 | 0.00 | 0.00 | 81 | 1009.9 |
| 20260905224722 | 88 | 141 | 3.0 | 3.0 | 0.00 | 0.00 | 0.00 | 81 | 1009.9 |
| 20260905224218 | 87 | 114 | 2.0 | 2.0 | 0.00 | 0.00 | 0.00 | 80 | 1010.3 |
| 20260905223714 | 87 | 251 | 4.0 | 4.0 | 0.00 | 0.00 | 0.00 | 79 | 1010.3 |
| 20260905223210 | 88 | 122 | 2.0 | 2.0 | 0.00 | 0.00 | 0.00 | 79 | 1010.3 |
| 20260905222706 | 88 | 186 | 2.0 | 2.0 | 0.00 | 0.00 | 0.00 | 79 | 1009.3 |
| 20260905222205 | 88 | 165 | 3.0 | 3.0 | 0.00 | 0.00 | 0.00 | 78 | 1009.3 |
| 20260905221701 | 89 | 127 | 2.0 | 2.0 | 0.00 | 0.00 | 0.00 | 77 | 1009.3 |
| 20260905221158 | 88 | 173 | 2.0 | 2.0 | 0.00 | 0.00 | 0.00 | 76 | 1009.6 |
| 20260905220653 | 89 | 246 | 2.0 | 2.0 | 0.00 | 0.00 | 0.00 | 75 | 1009.6 |
| 20260905220149 | 90 | 324 | 4.0 | 4.0 | 0.00 | 0.00 | 0.00 | 74 | 1009.6 |
| 20260905215649 | 91 | 138 | 4.0 | 5.0 | 0.00 | 0.00 | 0.00 | 74 | 1009.6 |
| 20260905215144 | 91 | 138 | 3.0 | 3.0 | 0.00 | 0.00 | 0.00 | 73 | 1009.6 |
| 20260905214640 | 91 | 114 | 4.0 | 4.0 | 0.00 | 0.00 | 0.00 | 73 | 1009.6 |
| 20260905214135 | 91 | 222 | 3.0 | 3.0 | 0.00 | 0.00 | 0.00 | 72 | 1009.3 |
| 20260905213630 | 92 | 141 | 2.0 | 2.0 | 0.00 | 0.00 | 0.00 | 72 | 1009.3 |
| 20260905213126 | 92 | 240 | 3.0 | 3.0 | 0.00 | 0.00 | 0.00 | 70 | 1009.3 |
| 20260905212621 | 92 | 192 | 3.0 | 3.0 | 0.00 | 0.00 | 0.00 | 70 | 1009.6 |
| 20260905212121 | 92 | 156 | 5.0 | 5.0 | 0.00 | 0.00 | 0.00 | 69 | 1009.6 |
| 20260905211615 | 93 | 251 | 4.0 | 4.0 | 0.00 | 0.00 | 0.00 | 68 | 1009.6 |
| 20260905211111 | 93 | 138 | 3.0 | 4.0 | 0.00 | 0.00 | 0.00 | 67 | 1009.3 |
| 20260905210607 | 93 | 288 | 4.0 | 4.0 | 0.00 | 0.00 | 0.00 | 66 | 1009.3 |
| 20260905205601 | 95 | 210 | 0.0 | 0.0 | 0.00 | 0.00 | 0.00 | 57 | 1009.3 |
| 20260905205101 | 96 | 306 | 4.0 | 5.0 | 0.00 | 0.00 | 0.00 | 54 | 1009.3 |
| 20260905204555 | 96 | 192 | 1.0 | 1.0 | 0.00 | 0.00 | 0.00 | 55 | 1009.3 |
| 20260905204050 | 97 | 114 | 1.0 | 1.0 | 0.00 | 0.00 | 0.00 | 53 | 1009.3 |
| 20260905203550 | 96 | 60 | 0.0 | 0.0 | 0.00 | 0.00 | 0.00 | 52 | 1009.3 |
| 20260905203046 | 96 | 162 | 2.0 | 2.0 | 0.00 | 0.00 | 0.00 | 53 | 1008.9 |
| 20260905202541 | 96 | 234 | 2.0 | 2.0 | 0.00 | 0.00 | 0.00 | 53 | 1008.9 |
| 20260905202036 | 95 | 48 | 2.0 | 2.0 | 0.00 | 0.00 | 0.00 | 54 | 1008.9 |
| 20260905201532 | 94 | 126 | 3.0 | 3.0 | 0.00 | 0.00 | 0.00 | 55 | 1009.3 |
| 20260905201031 | 96 | 312 | 4.0 | 4.0 | 0.00 | 0.00 | 0.00 | 54 | 1009.3 |
| 20260905200527 | 96 | 354 | 3.0 | 3.0 | 0.00 | 0.00 | 0.00 | 53 | 1009.3 |
| 20260905200026 | 96 | 222 | 2.0 | 2.0 | 0.00 | 0.00 | 0.00 | 53 | 1009.3 |
| 20260905195521 | 96 | 192 | 0.0 | 0.0 | 0.00 | 0.00 | 0.00 | 53 | 1009.3 |
| 20260905195016 | 96 | 354 | 1.0 | 1.0 | 0.00 | 0.00 | 0.00 | 53 | 1009.3 |
| 20260905194516 | 96 | 128 | 0.0 | 0.0 | 0.00 | 0.00 | 0.00 | 53 | 1009.6 |
| 20260905194015 | 95 | 222 | 2.0 | 2.0 | 0.00 | 0.00 | 0.00 | 55 | 1009.6 |
| 20260905193510 | 94 | 210 | 0.0 | 0.0 | 0.00 | 0.00 | 0.00 | 56 | 1009.6 |
| 20260905193005 | 95 | 330 | 4.0 | 4.0 | 0.00 | 0.00 | 0.00 | 57 | 1009.9 |
| 20260905192500 | 94 | 30 | 3.0 | 3.0 | 0.00 | 0.00 | 0.00 | 57 | 1009.9 |
| 20260905191957 | 94 | 306 | 5.0 | 5.0 | 0.00 | 0.00 | 0.00 | 56 | 1009.9 |
| 20260905191455 | 96 | 336 | 2.0 | 2.0 | 0.00 | 0.00 | 0.00 | 55 | 1009.9 |
| 20260905190954 | 96 | 60 | 2.0 | 2.0 | 0.00 | 0.00 | 0.00 | 56 | 1009.9 |
| 20260905190453 | 96 | 84 | 2.0 | 2.0 | 0.00 | 0.00 | 0.00 | 56 | 1009.9 |
| 20260905185951 | 95 | 48 | 2.0 | 2.0 | 0.00 | 0.00 | 0.00 | 58 | 1010.6 |
| 20260905185447 | 94 | 276 | 2.0 | 2.0 | 0.00 | 0.00 | 0.00 | 59 | 1010.6 |
| 20260905184945 | 94 | 354 | 3.0 | 3.0 | 0.00 | 0.00 | 0.00 | 60 | 1010.6 |
| 20260905184440 | 94 | 324 | 2.0 | 2.0 | 0.00 | 0.00 | 0.00 | 59 | 1010.6 |
| 20260905183939 | 93 | 330 | 2.0 | 2.0 | 0.00 | 0.00 | 0.00 | 59 | 1010.6 |
| 20260905183433 | 93 | 6 | 5.0 | 5.0 | 0.00 | 0.00 | 0.00 | 59 | 1010.6 |
| 20260905182929 | 94 | 64 | 2.0 | 2.0 | 0.00 | 0.00 | 0.00 | 59 | 1010.6 |
| 20260905182428 | 94 | 228 | 3.0 | 3.0 | 0.00 | 0.00 | 0.00 | 59 | 1010.6 |
| 20260905181924 | 94 | 12 | 2.0 | 2.0 | 0.00 | 0.00 | 0.00 | 60 | 1010.6 |
| 20260905181418 | 94 | 66 | 4.0 | 5.0 | 0.00 | 0.00 | 0.00 | 60 | 1010.9 |
| 20260905180917 | 94 | 234 | 2.0 | 2.0 | 0.00 | 0.00 | 0.00 | 61 | 1010.9 |
| 20260905180412 | 93 | 288 | 2.0 | 2.0 | 0.00 | 0.00 | 0.00 | 61 | 1010.9 |
| 20260905175907 | 94 | 216 | 3.0 | 3.0 | 0.00 | 0.00 | 0.00 | 61 | 1011.3 |
| 20260905175406 | 94 | 270 | 2.0 | 2.0 | 0.00 | 0.00 | 0.00 | 62 | 1011.3 |
| 20260905174901 | 93 | 18 | 2.0 | 2.0 | 0.00 | 0.00 | 0.00 | 63 | 1011.3 |
| 20260905174357 | 92 | 36 | 2.0 | 2.0 | 0.00 | 0.00 | 0.00 | 64 | 1011.6 |
| 20260905173853 | 92 | 6 | 3.0 | 3.0 | 0.00 | 0.00 | 0.00 | 64 | 1011.6 |
| 20260905173349 | 92 | 12 | 5.0 | 5.0 | 0.00 | 0.00 | 0.00 | 64 | 1011.6 |
| 20260905172844 | 91 | 135 | 3.0 | 3.0 | 0.00 | 0.00 | 0.00 | 64 | 1011.3 |
| 20260905172341 | 90 | 156 | 4.0 | 4.0 | 0.00 | 0.00 | 0.00 | 66 | 1011.3 |
| 20260905171838 | 90 | 347 | 4.0 | 4.0 | 0.00 | 0.00 | 0.00 | 64 | 1011.3 |
| 20260905171334 | 92 | 222 | 5.0 | 5.0 | 0.00 | 0.00 | 0.00 | 64 | 1011.6 |
| 20260905170830 | 92 | 30 | 6.0 | 6.0 | 0.00 | 0.00 | 0.00 | 64 | 1011.6 |
| 20260905170326 | 92 | 75 | 0.0 | 0.0 | 0.00 | 0.00 | 0.00 | 64 | 1011.6 |
| 20260905165825 | 91 | 72 | 0.0 | 0.0 | 0.00 | 0.00 | 0.00 | 65 | 1012.0 |
| 20260905165321 | 91 | 91 | 3.0 | 3.0 | 0.00 | 0.00 | 0.00 | 66 | 1012.0 |
| 20260905164821 | 92 | 24 | 1.0 | 1.0 | 0.00 | 0.00 | 0.00 | 66 | 1012.0 |
| 20260905164316 | 92 | 6 | 2.0 | 2.0 | 0.00 | 0.00 | 0.00 | 67 | 1012.3 |
| 20260905163811 | 92 | 48 | 3.0 | 3.0 | 0.00 | 0.00 | 0.00 | 68 | 1012.3 |
| 20260905163307 | 92 | 18 | 4.0 | 4.0 | 0.00 | 0.00 | 0.00 | 68 | 1012.3 |
| 20260905162803 | 91 | 252 | 2.0 | 2.0 | 0.00 | 0.00 | 0.00 | 69 | 1012.3 |
| 20260905162257 | 89 | 186 | 3.0 | 3.0 | 0.00 | 0.00 | 0.00 | 70 | 1012.3 |
| 20260905161752 | 88 | 271 | 4.0 | 4.0 | 0.00 | 0.00 | 0.00 | 71 | 1012.3 |
| 20260905161250 | 88 | 172 | 0.0 | 0.0 | 0.00 | 0.00 | 0.00 | 73 | 1013.0 |
| 20260905160749 | 89 | 6 | 5.0 | 5.0 | 0.00 | 0.00 | 0.00 | 73 | 1013.0 |
| 20260905160243 | 90 | 228 | 2.0 | 2.0 | 0.00 | 0.00 | 0.00 | 72 | 1013.0 |
| 20260905155738 | 89 | 348 | 0.0 | 0.0 | 0.00 | 0.00 | 0.00 | 72 | 1013.3 |
| 20260905155237 | 88 | 60 | 2.0 | 2.0 | 0.00 | 0.00 | 0.00 | 74 | 1013.3 |
| 20260905154731 | 90 | 324 | 4.0 | 4.0 | 0.00 | 0.00 | 0.00 | 74 | 1013.3 |
| 20260905154228 | 89 | 12 | 0.0 | 0.0 | 0.00 | 0.00 | 0.00 | 74 | 1013.3 |
| 20260905153723 | 88 | 347 | 6.0 | 6.0 | 0.00 | 0.00 | 0.00 | 75 | 1013.3 |
| 20260905153219 | 88 | 51 | 4.0 | 4.0 | 0.00 | 0.00 | 0.00 | 76 | 1013.3 |
| 20260905152713 | 90 | 1 | 5.0 | 6.0 | 0.00 | 0.00 | 0.00 | 74 | 1013.3 |
| 20260905152208 | 89 | 228 | 2.0 | 2.0 | 0.00 | 0.00 | 0.00 | 75 | 1013.3 |
| 20260905151707 | 88 | 179 | 0.0 | 0.0 | 0.00 | 0.00 | 0.00 | 77 | 1013.3 |
| 20260905151203 | 88 | 354 | 3.0 | 3.0 | 0.00 | 0.00 | 0.00 | 77 | 1013.0 |
| 20260905150658 | 88 | 270 | 2.0 | 2.0 | 0.00 | 0.00 | 0.00 | 78 | 1013.0 |
| 20260905150156 | 88 | 2 | 3.0 | 3.0 | 0.00 | 0.00 | 0.00 | 78 | 1013.0 |
| 20260905145654 | 88 | 12 | 2.0 | 2.0 | 0.00 | 0.00 | 0.00 | 79 | 1013.3 |
| 20260905145149 | 88 | 18 | 3.0 | 3.0 | 0.00 | 0.00 | 0.00 | 79 | 1013.3 |
| 20260905144643 | 87 | 210 | 4.0 | 4.0 | 0.00 | 0.00 | 0.00 | 79 | 1013.3 |
| 20260905144143 | 87 | 6 | 2.0 | 2.0 | 0.00 | 0.00 | 0.00 | 79 | 1013.3 |
| 20260905143637 | 88 | 342 | 2.0 | 2.0 | 0.00 | 0.00 | 0.00 | 79 | 1013.3 |
| 20260905143132 | 88 | 192 | 4.0 | 4.0 | 0.00 | 0.00 | 0.00 | 80 | 1013.3 |
| 20260905142631 | 88 | 108 | 3.0 | 3.0 | 0.00 | 0.00 | 0.00 | 80 | 1013.3 |
| 20260905142131 | 87 | 70 | 0.0 | 0.0 | 0.00 | 0.00 | 0.00 | 81 | 1013.3 |
| 20260905141630 | 87 | 234 | 2.0 | 2.0 | 0.00 | 0.00 | 0.00 | 82 | 1013.3 |
| 20260905141127 | 87 | 336 | 6.0 | 6.0 | 0.00 | 0.00 | 0.00 | 82 | 1013.3 |
| 20260905140622 | 87 | 24 | 4.0 | 4.0 | 0.00 | 0.00 | 0.00 | 82 | 1013.3 |
| 20260905140121 | 87 | 150 | 2.0 | 2.0 | 0.00 | 0.00 | 0.00 | 84 | 1013.3 |
| 20260905135616 | 86 | 127 | 2.0 | 2.0 | 0.00 | 0.00 | 0.00 | 85 | 1013.3 |
| 20260905135112 | 85 | 294 | 2.0 | 2.0 | 0.00 | 0.00 | 0.00 | 86 | 1013.3 |
| 20260905134607 | 84 | 12 | 3.0 | 3.0 | 0.00 | 0.00 | 0.00 | 88 | 1013.3 |
| 20260905134105 | 85 | 6 | 4.0 | 4.0 | 0.00 | 0.00 | 0.00 | 88 | 1013.3 |
| 20260905133601 | 84 | 65 | 2.0 | 2.0 | 0.00 | 0.00 | 0.00 | 90 | 1013.3 |
| 20260905133101 | 84 | 6 | 2.0 | 2.0 | 0.00 | 0.00 | 0.00 | 90 | 1013.7 |
| 20260905132600 | 84 | 72 | 0.0 | 0.0 | 0.00 | 0.00 | 0.00 | 91 | 1013.7 |
| 20260905132055 | 83 | 282 | 2.0 | 2.0 | 0.00 | 0.00 | 0.00 | 93 | 1013.7 |
| 20260905131551 | 82 | 7 | 3.0 | 3.0 | 0.00 | 0.00 | 0.00 | 95 | 1013.7 |
| 20260905131046 | 81 | 162 | 2.0 | 2.0 | 0.00 | 0.00 | 0.00 | 97 | 1013.7 |
| 20260905130544 | 81 | 48 | 2.0 | 2.0 | 0.00 | 0.00 | 0.00 | 98 | 1013.7 |
| 20260905130040 | 80 | 193 | 0.0 | 0.0 | 0.00 | 0.00 | 0.00 | 99 | 1013.7 |
| 20260905125539 | 80 | 59 | 0.0 | 0.0 | 0.00 | 0.00 | 0.00 | 99 | 1013.7 |
| 20260905125035 | 79 | 18 | 0.0 | 0.0 | 0.00 | 0.00 | 0.00 | 99 | 1013.7 |
| 20260905124532 | 79 | 192 | 1.0 | 1.0 | 0.00 | 0.00 | 0.00 | 99 | 1013.7 |
| 20260905124028 | 78 | 49 | 0.0 | 0.0 | 0.00 | 0.00 | 0.00 | 99 | 1013.7 |
| 20260905123523 | 78 | 204 | 0.0 | 0.0 | 0.00 | 0.00 | 0.00 | 99 | 1013.7 |
| 20260905123019 | 78 | 13 | 0.0 | 0.0 | 0.00 | 0.00 | 0.00 | 99 | 1013.7 |
| 20260905122513 | 77 | 342 | 0.0 | 0.0 | 0.00 | 0.00 | 0.00 | 99 | 1013.7 |
| 20260905122009 | 77 | 66 | 0.0 | 0.0 | 0.00 | 0.00 | 0.00 | 99 | 1013.7 |
| 20260905121508 | 77 | 41 | 0.0 | 0.0 | 0.00 | 0.00 | 0.00 | 99 | 1013.3 |
| 20260905121003 | 76 | 109 | 0.0 | 0.0 | 0.00 | 0.00 | 0.00 | 99 | 1013.3 |
| 20260905120503 | 76 | 46 | 0.0 | 0.0 | 0.00 | 0.00 | 0.00 | 99 | 1013.3 |
| 20260905115958 | 76 | 46 | 0.0 | 0.0 | 0.00 | 0.00 | 0.00 | 99 | 1013.3 |
| 20260905115457 | 75 | 46 | 0.0 | 0.0 | 0.00 | 0.00 | 0.00 | 99 | 1013.3 |
| 20260905114952 | 75 | 46 | 0.0 | 0.0 | 0.00 | 0.00 | 0.00 | 99 | 1013.3 |
| 20260905114452 | 75 | 46 | 0.0 | 0.0 | 0.00 | 0.00 | 0.00 | 99 | 1013.3 |
| 20260905113950 | 75 | 46 | 0.0 | 0.0 | 0.00 | 0.00 | 0.00 | 99 | 1013.3 |
| 20260905113446 | 75 | 46 | 0.0 | 0.0 | 0.00 | 0.00 | 0.00 | 99 | 1013.3 |
| 20260905112941 | 75 | 46 | 0.0 | 0.0 | 0.00 | 0.00 | 0.00 | 99 | 1013.0 |